Content
SEND FEEDBACK

Daily
Averages
Monthly
Summary
Czech Republic

PRAGUE, CZECH REPUBLIC


Home > Europe > Czech Republic
Elevation: 1184 feet     Latitude: 50 06N     Longitude: 014 15E

WEATHER
 
SELECT A DAY
Number of Records: 319,846;   Date Range: 7/1/96 - 7/11/14
 
SHARE

PRINT THIS DATA

[ ← Previous Day ]
WEATHER ALMANAC - MARCH 20, 2013
[ Next Day → ]
[ °C ]   °F
Weather ElementAverageHighLow
Temperature38.8 °F48.2 °F (1:30 pm)32 °F (3:00 am)
Dewpoint32.5 °F37.4 °F (8:30 pm)28.4 °F (3:00 am)
Humidity78.4 %93 % (4:00 am)52 % (1:00 pm)
Barometer29.66 in29.74 in (9:00 pm)29.56 in (12:30 am)
Wind Speed10.1 mph16.1 mph (4:30 am)
Weather ElementAverage
Visibility7.8 mi
Wind DirectionS (177.9 °)

Weather ElementTotal
Precipitation---
Heating Degree Days24.9 (Base 65)
Averaged from 53 records on March 20, 2013
WEATHER CONDITIONS BREAKOUT
WIND DIRECTION BREAKOUT
WEATHER BY HOUR - MARCH 20, 2013
[ °C ]   °F
Local TimeTemperatureDewpointHumidityBarometerVisibilityWind DirectionWind SpeedGust SpeedPrecipitationEventsConditions
12:30 AM33.8 °F30.2 °F87 %29.56 inSW (230°)12.7 mphClear
1:00 AM33.0 °F30.0 °F84 %29.63 in25.0 miSW (230°)13.4 mphPartly Cloudy
1:00 AM33.8 °F30.2 °F87 %29.56 inSW (220°)12.7 mphClear
1:30 AM33.8 °F30.2 °F87 %29.56 inSW (230°)15.0 mphClear
2:00 AM33.8 °F30.2 °F87 %29.59 in6.2 miSW (230°)13.8 mphScattered Clouds
2:30 AM33.8 °F30.2 °F87 %29.59 in6.2 miSW (230°)12.7 mphScattered Clouds
3:00 AM32.0 °F28.4 °F87 %29.59 inSW (220°)13.8 mphClear
3:30 AM33.8 °F30.2 °F87 %29.59 inSW (220°)13.8 mphClear
4:00 AM32.0 °F30.2 °F93 %29.59 inSW (220°)13.8 mphClear
4:30 AM33.8 °F28.4 °F81 %29.59 inSW (230°)16.1 mphClear
5:00 AM32.0 °F28.4 °F87 %29.59 inSSW (210°)12.7 mphClear
5:30 AM32.0 °F28.4 °F87 %29.62 inSSW (210°)11.5 mphClear
6:00 AM32.0 °F28.4 °F87 %29.62 inSSW (210°)13.8 mphClear
6:30 AM32.0 °F28.4 °F87 %29.62 inSW (220°)11.5 mphClear
7:00 AM33.0 °F30.0 °F83 %29.70 in16.0 miSW (220°)11.2 mphScattered Clouds
7:00 AM33.8 °F30.2 °F87 %29.62 in6.2 miSSW (210°)12.7 mphPartly Cloudy
7:30 AM33.8 °F30.2 °F87 %29.65 inSSW (210°)12.7 mphClear
8:00 AM35.6 °F30.2 °F81 %29.65 in6.2 miSW (220°)10.4 mphPartly Cloudy
8:30 AM37.4 °F30.2 °F75 %29.65 in6.2 miSSW (210°)12.7 mphPartly Cloudy
9:00 AM37.4 °F30.2 °F75 %29.65 in6.2 miSW (220°)12.7 mphPartly Cloudy
9:30 AM37.4 °F30.2 °F75 %29.65 in6.2 miSSW (210°)13.8 mphPartly Cloudy
10:00 AM39.2 °F32.0 °F75 %29.65 in6.2 miSSW (210°)12.7 mphPartly Cloudy
10:30 AM39.2 °F32.0 °F75 %29.68 in6.2 miSSW (210°)11.5 mphPartly Cloudy
11:00 AM41.0 °F32.0 °F70 %29.68 in6.2 miSW (220°)9.2 mphPartly Cloudy
11:30 AM41.0 °F32.0 °F70 %29.68 in6.2 miSW (230°)9.2 mphPartly Cloudy
12:00 PM42.8 °F32.0 °F66 %29.68 in6.2 miVariable3.5 mphPartly Cloudy
12:30 PM42.8 °F32.0 °F66 %29.68 in6.2 miWest (270°)4.6 mphPartly Cloudy
1:00 PM45.0 °F33.0 °F52 %29.70 in22.0 miNNE (20°)2.2 mphScattered Clouds
1:00 PM44.6 °F33.8 °F66 %29.65 in6.2 miVariable2.3 mphPartly Cloudy
1:30 PM48.2 °F33.8 °F58 %29.65 in6.2 miVariable3.5 mphPartly Cloudy
2:00 PM48.2 °F35.6 °F62 %29.65 in6.2 miVariable3.5 mphPartly Cloudy
2:30 PM48.2 °F33.8 °F58 %29.65 in6.2 miVariable3.5 mphPartly Cloudy
3:00 PM48.2 °F32.0 °F54 %29.65 in6.2 miESE (120°)5.8 mphPartly Cloudy
3:30 PM48.2 °F33.8 °F58 %29.65 in6.2 miENE (60°)10.4 mphPartly Cloudy
4:00 PM46.4 °F35.6 °F66 %29.65 in6.2 miENE (60°)10.4 mphPartly Cloudy
4:30 PM44.6 °F35.6 °F71 %29.65 in6.2 miENE (70°)8.1 mphPartly Cloudy
5:00 PM44.6 °F35.6 °F71 %29.65 inEast (90°)13.8 mphClear
5:30 PM44.6 °F33.8 °F66 %29.65 inEast (90°)11.5 mphClear
6:00 PM41.0 °F33.8 °F76 %29.65 inEast (90°)11.5 mphClear
6:30 PM41.0 °F33.8 °F76 %29.65 inEast (90°)9.2 mphClear
7:00 PM41.0 °F33.8 °F76 %29.68 inEast (100°)6.9 mphClear
7:00 PM42.0 °F34.0 °F64 %29.71 in16.0 miEast (100°)6.7 mphMostly Cloudy
7:30 PM41.0 °F33.8 °F76 %29.71 in6.2 miWNW (300°)4.6 mphMostly Cloudy
7:37 PM39.2 °F33.8 °F81 %29.71 in6.2 miWest (280°)4.6 mphRainLight Rain
8:00 PM39.2 °F35.6 °F87 %29.71 in6.2 miNNW (330°)3.5 mphRainLight Rain
8:18 PM39.2 °F35.6 °F87 %29.71 in6.2 miWest (260°)11.5 mphRainLight Rain
8:30 PM39.2 °F37.4 °F93 %29.71 in6.2 miWest (260°)12.7 mphRainLight Rain
9:00 PM39.2 °F37.4 °F93 %29.74 in6.2 miWSW (250°)9.2 mphRainLight Rain
9:30 PM39.2 °F37.4 °F93 %29.74 in6.2 miSW (220°)9.2 mphScattered Clouds
10:00 PM39.2 °F37.4 °F93 %29.74 in6.2 miSW (220°)11.5 mphPartly Cloudy
10:30 PM37.4 °F35.6 °F93 %29.74 inSW (220°)10.4 mphClear
11:00 PM37.4 °F35.6 °F93 %29.74 inSW (220°)12.7 mphClear
11:30 PM35.6 °F33.8 °F93 %29.74 inSW (230°)11.5 mphClear
Hourly data recorded from LKPR, located miles away from Prague, Czech Republic







STORIES FROM OUR PARTNERS